Location: Newark
(42.7133°N, 87.7910°W)
Time: 05:28:13
(UTC+00:00)

Tiros 1 - Pass Details

Date: 22 September 2019
Orbit: 630 x 664 km, 48.4° (Epoch: 23 October)

Event Time Altitude Azimuth Distance (km) Brightness Sun altitude
Rises 16:27:34 0° 194° (SSW) 2,971 11.0 44.2°
Reaches altitude 10° 16:30:34 10° 176° (S) 2,058 10.7 44.4°
Maximum altitude 16:33:42 18° 134° (SE) 1,606 10.3 44.7°
Drops below altitude 10° 16:36:50 10° 92° (E) 2,052 10.1 44.9°
Sets 16:39:48 0° 73° (ENE) 2,959 10.6 45.2°
